User: anonymous   Login
Location: LDNL
(36.4545°S, 141.6685°E)
Time: 12:38:56
(UTC+10:00)
Language:

XW-2C - Orbit

View from above orbital plane
View from above orbital plane
View from above satellite
View from above satellite

Ground track
Ground track

The orbit data is extracted from the following two-line orbital elements,

1 40906U 15049H   22138.76987951  .00007198  00000-0  34872-3 0  9998
2 40906  97.4934 142.4279 0016057 102.2217  72.0278 15.18732678368416
Epoch (UTC): 18 May 2022 18:28:37
Eccentricity: 0.0016057
inclination: 97.4934°
perigee height: 498 km
apogee height: 521 km
right ascension of ascending node: 142.4279°
argument of perigee: 102.2217°
revolutions per day: 15.18732678
mean anomaly at epoch: 72.0278°
orbit number at epoch: 36841

The dashed part of the orbit path shows where the satellite is in the earth's shadow,  

DLR